When you browse on this site, cookies collect data to enhance your experience and personalize the content and advertising you see.
Visit our Privacy Policy to learn more. By continuing to use the site, you agree to this use of cookies and data.
  • Em Portugal
  • Lista de países
  • Para 7 dias
  • Temperatura da água
  • Mapas de satélite
  • Mapa do tempo
  • Widgets de tempo
  • user-avatar
    Iniciar Sessão

    Previsão horária em Newcastle

    Hoje, 24 Maio, Sexta-feira

    Tempo Temperatura Precipitação Vento Pressão Humidade
    00:00 +15°C° 0 mm 2 m/s 767 mmHg 93%
    01:00 +14°C° 0 mm 2 m/s 767 mmHg 93%
    02:00 +14°C° 0 mm 2 m/s 767 mmHg 93%
    03:00 +14°C° 0 mm 2 m/s 767 mmHg 93%
    04:00 +14°C° 0 mm 2 m/s 766 mmHg 90%
    05:00 +14°C° 0 mm 2 m/s 767 mmHg 90%
    06:00 +14°C° 0 mm 2 m/s 767 mmHg 90%
    07:00 +14°C° 0 mm 2 m/s 767 mmHg 89%
    08:00 +16°C° 0 mm 2 m/s 766 mmHg 80%
    09:00 +18°C° 0 mm 2 m/s 766 mmHg 71%
    10:00 +20°C° 0 mm 3 m/s 766 mmHg 59%
    11:00 +23°C° 0 mm 2 m/s 766 mmHg 53%
    12:00 +24°C° 0 mm 2 m/s 765 mmHg 47%
    13:00 +26°C° 0 mm 2 m/s 765 mmHg 40%
    14:00 +25°C° 0 mm 2 m/s 765 mmHg 44%
    15:00 +24°C° 0 mm 2 m/s 764 mmHg 48%
    16:00 +23°C° 0 mm 2 m/s 764 mmHg 52%
    17:00 +20°C° 0 mm 2 m/s 765 mmHg 53%
    18:00 +19°C° 0 mm 2 m/s 765 mmHg 55%
    19:00 +17°C° 0 mm 2 m/s 765 mmHg 57%
    20:00 +17°C° 0 mm 3 m/s 765 mmHg 58%
    21:00 +16°C° 0 mm 3 m/s 765 mmHg 59%
    22:00 +14°C° 0 mm 3 m/s 765 mmHg 57%
    23:00 +13°C° 0 mm 3 m/s 765 mmHg 58%

    Amanhã, 25 Maio, Sábado

    Tempo Temperatura Precipitação Vento Pressão Humidade
    00:00 +13°C° 0 mm 3 m/s 765 mmHg 59%
    01:00 +12°C° 0 mm 3 m/s 765 mmHg 59%
    02:00 +12°C° 0 mm 3 m/s 765 mmHg 60%
    03:00 +12°C° 0 mm 3 m/s 764 mmHg 60%
    04:00 +12°C° 0 mm 3 m/s 764 mmHg 61%
    05:00 +12°C° 0 mm 3 m/s 764 mmHg 60%
    06:00 +12°C° 0 mm 4 m/s 764 mmHg 60%
    07:00 +12°C° 0 mm 4 m/s 764 mmHg 59%
    08:00 +14°C° 0 mm 4 m/s 764 mmHg 55%
    09:00 +17°C° 0 mm 4 m/s 764 mmHg 50%
    10:00 +20°C° 0 mm 4 m/s 764 mmHg 45%
    11:00 +21°C° 0 mm 3 m/s 763 mmHg 41%
    12:00 +24°C° 0 mm 3 m/s 763 mmHg 37%
    13:00 +25°C° 0 mm 3 m/s 762 mmHg 33%
    14:00 +25°C° 0 mm 3 m/s 762 mmHg 37%
    15:00 +24°C° 0 mm 2 m/s 762 mmHg 41%
    16:00 +23°C° 0 mm 2 m/s 761 mmHg 45%
    17:00 +20°C° 0 mm 2 m/s 762 mmHg 48%
    18:00 +18°C° 0 mm 3 m/s 762 mmHg 51%
    19:00 +16°C° 0 mm 3 m/s 762 mmHg 55%
    20:00 +14°C° 0 mm 3 m/s 762 mmHg 56%
    21:00 +14°C° 0 mm 3 m/s 762 mmHg 58%
    22:00 +13°C° 0 mm 3 m/s 762 mmHg 60%
    23:00 +13°C° 0 mm 3 m/s 762 mmHg 59%

    Depois de amanhã, 26 Maio, Domingo

    Tempo Temperatura Precipitação Vento Pressão Humidade
    00:00 +13°C° 0 mm 3 m/s 762 mmHg 59%
    01:00 +13°C° 0 mm 4 m/s 761 mmHg 58%
    02:00 +13°C° 0 mm 4 m/s 761 mmHg 57%
    03:00 +13°C° 0 mm 4 m/s 761 mmHg 57%
    04:00 +14°C° 0 mm 5 m/s 760 mmHg 56%
    05:00 +14°C° 0 mm 5 m/s 760 mmHg 56%
    06:00 +14°C° 0 mm 5 m/s 761 mmHg 56%
    07:00 +14°C° 0 mm 5 m/s 761 mmHg 56%
    08:00 +15°C° 0 mm 5 m/s 761 mmHg 55%
    09:00 +17°C° 0 mm 5 m/s 761 mmHg 53%
    10:00 +20°C° 0 mm 6 m/s 761 mmHg 51%
    11:00 +21°C° 0 mm 5 m/s 760 mmHg 47%
    12:00 +23°C° 0 mm 5 m/s 760 mmHg 44%
    13:00 +25°C° 0 mm 4 m/s 759 mmHg 40%
    14:00 +24°C° 0 mm 3 m/s 759 mmHg 43%
    15:00 +24°C° 0 mm 3 m/s 759 mmHg 46%
    16:00 +23°C° 0 mm 2 m/s 758 mmHg 49%
    17:00 +20°C° 0 mm 2 m/s 759 mmHg 53%
    18:00 +18°C° 0 mm 2 m/s 759 mmHg 57%
    19:00 +16°C° 0 mm 2 m/s 760 mmHg 62%
    20:00 +15°C° 0 mm 2 m/s 760 mmHg 64%
    21:00 +15°C° 0 mm 2 m/s 760 mmHg 66%
    22:00 +13°C° 0 mm 3 m/s 760 mmHg 68%
    23:00 +12°C° 0 mm 3 m/s 760 mmHg 70%

    27 Maio, Segunda-feira

    Tempo Temperatura Precipitação Vento Pressão Humidade
    00:00 +12°C° 0 mm 3 m/s 759 mmHg 72%
    01:00 +11°C° 0 mm 4 m/s 759 mmHg 75%
    02:00 +11°C° 0 mm 4 m/s 759 mmHg 73%
    03:00 +11°C° 0 mm 4 m/s 759 mmHg 72%
    04:00 +9°C° 0 mm 5 m/s 759 mmHg 70%
    05:00 +9°C° 0 mm 5 m/s 759 mmHg 68%
    06:00 +9°C° 0 mm 5 m/s 759 mmHg 65%
    07:00 +9°C° 0 mm 6 m/s 759 mmHg 63%
    08:00 +11°C° 0 mm 6 m/s 759 mmHg 57%
    09:00 +14°C° 0 mm 7 m/s 758 mmHg 52%
    10:00 +16°C° 0 mm 7 m/s 758 mmHg 47%
    11:00 +17°C° 0 mm 8 m/s 757 mmHg 45%
    12:00 +18°C° 0 mm 8 m/s 757 mmHg 43%
    13:00 +19°C° 0 mm 9 m/s 756 mmHg 40%
    14:00 +17°C° 0 mm 8 m/s 756 mmHg 42%
    15:00 +16°C° 0 mm 8 m/s 757 mmHg 44%
    16:00 +15°C° 0 mm 8 m/s 757 mmHg 45%
    17:00 +13°C° 0 mm 8 m/s 758 mmHg 45%
    18:00 +12°C° 0 mm 8 m/s 759 mmHg 45%
    19:00 +11°C° 0 mm 8 m/s 759 mmHg 45%
    20:00 +10°C° 0 mm 7 m/s 760 mmHg 47%
    21:00 +10°C° 0 mm 7 m/s 760 mmHg 48%
    22:00 +9°C° 0 mm 7 m/s 761 mmHg 49%
    23:00 +9°C° 0 mm 7 m/s 761 mmHg 50%

    28 Maio, Terça-feira

    Tempo Temperatura Precipitação Vento Pressão Humidade
    00:00 +8°C° 0 mm 7 m/s 761 mmHg 52%
    01:00 +8°C° 0 mm 7 m/s 760 mmHg 53%
    02:00 +8°C° 0 mm 6 m/s 760 mmHg 55%
    03:00 +7°C° 0 mm 6 m/s 760 mmHg 57%
    04:00 +7°C° 0 mm 6 m/s 760 mmHg 59%
    05:00 +7°C° 0 mm 6 m/s 761 mmHg 61%
    06:00 +7°C° 0 mm 5 m/s 761 mmHg 63%
    07:00 +7°C° 0 mm 5 m/s 762 mmHg 65%
    08:00 +8°C° 0 mm 5 m/s 762 mmHg 60%
    09:00 +10°C° 0 mm 6 m/s 761 mmHg 55%
    10:00 +11°C° 0 mm 6 m/s 761 mmHg 50%
    11:00 +14°C° 0 mm 6 m/s 761 mmHg 46%
    12:00 +15°C° 0 mm 5 m/s 760 mmHg 42%
    13:00 +17°C° 0 mm 5 m/s 759 mmHg 39%
    14:00 +16°C° 0 mm 5 m/s 759 mmHg 41%
    15:00 +16°C° 0 mm 5 m/s 759 mmHg 43%
    16:00 +16°C° 0 mm 5 m/s 759 mmHg 45%
    17:00 +15°C° 0 mm 5 m/s 759 mmHg 47%
    18:00 +14°C° 0 mm 5 m/s 759 mmHg 49%
    19:00 +13°C° 0 mm 6 m/s 760 mmHg 52%
    20:00 +11°C° 0 mm 6 m/s 760 mmHg 54%
    21:00 +11°C° 0 mm 6 m/s 760 mmHg 56%
    22:00 +11°C° 0 mm 7 m/s 760 mmHg 58%
    23:00 +10°C° 0 mm 7 m/s 759 mmHg 59%

    29 Maio, Quarta-feira

    Tempo Temperatura Precipitação Vento Pressão Humidade
    00:00 +10°C° 0 mm 7 m/s 759 mmHg 61%
    01:00 +10°C° 0 mm 6 m/s 759 mmHg 62%
    02:00 +10°C° 0 mm 7 m/s 758 mmHg 62%
    03:00 +10°C° 0 mm 7 m/s 758 mmHg 62%
    04:00 +10°C° 0 mm 7 m/s 757 mmHg 62%
    05:00 +10°C° 0 mm 7 m/s 758 mmHg 63%
    06:00 +10°C° 0 mm 7 m/s 758 mmHg 63%
    07:00 +9°C° 0 mm 7 m/s 758 mmHg 64%
    08:00 +11°C° 0 mm 7 m/s 758 mmHg 59%
    09:00 +14°C° 0 mm 7 m/s 758 mmHg 53%
    10:00 +16°C° 0 mm 8 m/s 758 mmHg 48%
    11:00 +17°C° 0 mm 7 m/s 757 mmHg 46%
    12:00 +17°C° 0 mm 7 m/s 756 mmHg 44%
    13:00 +18°C° 0 mm 7 m/s 755 mmHg 43%
    14:00 +17°C° 0 mm 7 m/s 755 mmHg 44%
    15:00 +17°C° 0 mm 6 m/s 755 mmHg 46%
    16:00 +16°C° 0 mm 6 m/s 755 mmHg 48%
    17:00 +16°C° 0 mm 6 m/s 756 mmHg 50%
    18:00 +15°C° 0 mm 5 m/s 756 mmHg 52%
    19:00 +14°C° 0 mm 5 m/s 757 mmHg 55%
    20:00 +14°C° 0 mm 5 m/s 757 mmHg 60%
    21:00 +13°C° 0 mm 5 m/s 758 mmHg 64%
    22:00 +13°C° 0 mm 5 m/s 758 mmHg 69%
    23:00 +12°C° 0 mm 5 m/s 758 mmHg 72%
    Mostrar mais